Wind_Speed
36 36 36 37 37 37 34 31 29 28 28 28 29 29 28 27 26 26 25 23 22 21 21 20 20 19 19 18 18 17 16 15 15 15 14 14 14 14 14 15 15 15 16 16 17 17 17 17 17
37 37 38 38 39 37 34 31 30 29 29 29 30 29 29 28 27 26 25 24 23 23 22 22 22 21 21 20 19 19 18 18 17 17 17 17 16 16 17 17 17 17 18 18 18 19 19 19 19
37 38 39 40 39 37 34 32 31 31 31 30 30 30 30 29 28 27 26 26 25 24 24 23 23 22 21 21 20 20 20 19 19 19 19 18 19 19 19 19 19 19 19 19 20 20 21 21 21
38 39 40 40 39 36 35 33 32 32 32 32 32 31 30 30 29 28 28 27 26 25 24 23 23 23 22 22 21 21 21 21 20 20 20 20 20 20 20 20 20 21 21 21 21 22 22 23 23
40 41 41 40 37 36 36 35 34 35 35 34 33 32 31 30 30 29 29 28 27 26 25 24 24 24 24 23 22 22 22 22 22 22 22 21 21 21 21 21 21 22 22 22 22 23 23 24 24
41 41 41 39 37 36 36 36 36 36 36 36 35 34 32 31 31 30 29 29 28 27 26 25 25 25 25 24 24 24 23 23 23 23 23 23 22 22 22 22 23 23 23 23 23 23 24 24 24
42 42 41 39 37 37 36 37 37 37 38 37 36 36 33 32 31 31 30 30 29 29 28 27 27 26 26 25 25 25 24 24 24 24 24 24 24 24 24 24 24 24 24 24 24 24 24 25 25
42 43 42 40 38 37 36 37 38 38 38 37 37 36 34 33 33 32 32 31 31 30 29 28 28 27 26 26 26 25 25 25 25 25 25 25 25 25 25 25 25 25 25 25 25 25 25 25 25
43 43 42 39 38 37 37 38 39 39 38 38 37 37 36 35 34 34 33 32 32 31 30 29 28 28 27 27 26 26 26 26 26 26 26 26 26 26 26 26 26 25 25 25 25 25 25 26 26
43 43 39 38 38 38 38 39 39 39 39 38 38 37 37 36 36 35 34 34 33 32 32 31 30 29 29 28 27 27 27 26 26 26 27 26 26 26 26 27 26 26 26 26 26 26 27 27 27
43 40 38 38 38 39 39 39 40 40 39 39 38 38 38 37 37 36 36 35 34 34 33 32 31 30 30 29 29 28 28 27 27 27 27 27 27 27 27 27 27 28 28 28 28 28 28 28 28
43 40 39 39 39 39 39 40 40 40 38 39 39 39 38 38 37 36 36 36 35 34 33 32 32 31 31 30 30 30 29 28 28 28 28 28 28 28 28 28 29 29 29 30 30 30 30 30 30
42 40 41 41 41 41 40 40 40 39 38 39 39 38 38 37 36 36 36 36 35 34 33 33 33 33 32 31 31 31 30 29 29 29 29 29 29 29 29 29 29 30 30 30 30 31 31 31 31
41 41 41 42 42 42 41 41 41 38 38 39 38 38 37 36 36 36 35 35 34 34 34 34 34 33 33 32 32 32 31 31 31 31 30 30 30 30 30 30 30 30 30 31 31 31 31 31 31
42 42 42 42 42 41 42 42 40 38 39 39 39 38 38 37 36 35 35 35 35 34 34 34 34 33 33 32 32 32 32 32 32 32 32 32 31 31 31 31 31 31 31 31 32 32 32 32 32
42 43 43 41 42 42 43 41 38 39 40 39 39 39 39 38 37 36 35 35 35 35 34 34 34 33 33 33 33 33 33 33 33 33 33 33 32 32 32 32 32 32 32 32 33 33 33 33 34
43 43 41 40 41 41 42 40 39 40 40 39 40 40 40 39 37 36 36 36 35 35 34 34 34 34 33 33 33 33 33 33 33 33 33 33 32 32 33 33 32 32 33 33 33 33 34 34 35
42 41 40 40 40 41 41 40 39 40 40 40 40 40 39 39 38 38 37 36 35 35 35 34 34 34 34 33 33 33 33 33 33 33 33 33 33 33 33 33 33 33 34 34 34 34 35 35 36
41 41 40 39 39 41 41 40 39 40 41 40 40 39 39 39 39 38 37 37 36 35 34 34 34 34 34 34 34 34 33 33 33 33 33 33 33 33 33 33 34 34 34 35 35 35 36 37 37
41 41 40 40 40 41 41 40 40 40 40 41 40 40 39 39 39 38 38 37 36 35 35 35 34 34 34 34 34 34 33 33 33 33 33 33 33 33 34 34 35 35 35 35 36 36 37 38 39
41 41 40 39 40 41 41 41 40 40 40 41 41 40 40 39 39 39 38 38 37 36 36 36 35 34 34 34 34 34 33 33 33 33 33 33 34 34 35 35 35 36 36 36 37 37 38 39 40
40 40 41 40 40 40 41 42 40 40 40 40 40 39 39 39 39 39 39 38 37 37 36 36 36 35 34 34 34 34 33 33 33 33 33 34 35 35 35 35 36 36 37 37 38 39 40 40 41
39 40 40 41 41 41 41 42 40 40 40 39 39 39 39 39 39 39 39 38 38 38 37 36 36 35 35 34 33 33 33 33 33 34 34 34 35 35 36 36 36 37 37 38 39 40 41 41 42
39 39 39 40 41 43 41 41 40 39 38 38 38 39 39 39 39 39 39 39 38 38 38 37 36 35 35 34 34 33 33 33 34 34 34 35 35 36 36 36 37 37 38 38 39 40 41 41 41
38 39 38 40 42 43 40 41 39 37 36 37 38 38 38 38 38 38 38 38 38 38 37 36 36 35 35 35 34 33 33 33 34 34 35 36 36 36 36 36 37 38 38 39 39 40 40 40 40
37 38 38 39 41 41 41 41 39 38 37 36 36 38 38 38 37 37 37 37 38 38 37 36 35 35 35 35 34 34 33 34 34 35 36 36 36 36 36 37 37 38 38 39 39 39 39 40 41
35 36 36 37 40 40 41 41 39 38 37 36 35 36 37 37 37 37 37 37 37 38 37 36 36 36 35 35 35 34 34 34 35 36 36 36 36 36 36 37 37 38 38 38 38 39 40 41 42
34 34 35 36 38 39 40 39 38 37 36 36 36 35 36 37 37 37 37 37 37 37 37 36 36 36 35 35 35 35 35 35 35 35 35 35 36 36 36 36 37 37 37 38 39 40 41 42 43
34 35 35 35 36 37 38 38 36 35 35 35 35 35 35 36 37 37 37 37 37 37 37 37 36 36 36 36 36 36 36 35 35 34 34 34 35 35 36 37 37 38 38 39 40 41 42 42 43
31 34 35 35 35 35 36 35 34 34 33 33 34 34 34 35 36 36 36 37 37 37 37 37 37 37 37 37 36 36 35 35 35 34 34 34 35 35 36 36 37 38 38 39 40 40 41 43 43
Wind_Direction
237 237 237 238 239 240 240 241 241 240 241 240 240 241 242 242 243 245 246 245 245 245 246 247 248 249 250 251 252 253 254 255 257 258 259 261 263 265 267 270 271 272 274 276 278 279 281 281 282
237 237 237 238 239 240 240 241 241 240 240 239 239 240 241 242 243 244 246 246 245 245 246 246 247 249 250 252 253 254 255 257 258 259 261 262 263 265 267 269 271 272 274 275 276 277 278 279 280
238 238 238 238 239 240 240 240 241 241 240 240 240 240 241 242 243 244 244 245 246 246 245 246 246 247 248 250 253 255 256 258 259 260 262 263 265 267 269 270 271 271 272 273 274 275 277 278 279
238 238 238 239 239 239 240 240 240 240 240 240 240 241 242 242 243 243 243 244 244 244 243 243 244 246 248 250 253 255 257 258 260 261 263 265 266 268 270 271 271 271 272 273 274 275 276 277 279
238 238 239 239 239 239 239 239 239 239 239 239 240 241 242 242 242 242 242 242 242 242 242 243 244 247 249 252 254 256 258 259 260 262 264 265 267 268 269 270 270 271 272 274 275 275 276 277 278
238 239 239 239 239 238 238 239 238 239 239 239 240 240 241 241 241 241 240 240 241 242 243 244 245 248 250 252 255 256 258 259 260 262 264 265 267 268 269 269 269 270 272 274 275 276 277 278 278
238 239 239 238 237 237 238 238 239 239 239 240 240 240 240 240 239 239 239 240 241 242 243 244 246 248 250 252 255 256 257 258 259 261 263 265 266 268 267 268 269 270 272 273 275 276 278 279 280
238 239 238 237 237 237 237 238 238 239 239 239 239 239 239 238 238 238 239 240 241 242 243 245 246 249 251 253 254 256 257 258 259 261 263 264 266 268 267 267 269 270 272 274 276 277 279 280 281
238 238 238 237 238 237 237 238 238 239 239 239 238 238 238 238 238 238 239 240 241 242 243 245 247 249 251 253 254 255 256 257 259 261 263 264 266 267 267 268 269 270 272 274 276 277 279 280 280
238 239 238 238 238 237 237 238 238 239 239 238 238 238 237 237 237 238 239 241 242 243 244 246 247 249 250 252 254 255 256 258 260 261 262 263 265 266 267 268 269 271 272 274 275 277 278 279 280
238 239 238 237 237 237 236 236 237 238 238 238 238 237 237 237 238 238 239 241 242 243 245 246 247 249 250 252 253 255 256 258 259 261 263 263 265 266 267 267 269 271 272 274 275 276 278 279 280
238 237 237 236 236 237 236 235 236 237 237 237 236 236 236 237 237 238 239 241 242 243 244 246 247 248 250 251 253 254 257 258 260 261 262 264 266 266 267 268 270 271 273 274 275 276 277 278 279
236 236 236 236 236 236 235 235 236 236 236 236 236 236 237 237 237 237 238 239 241 242 244 245 246 248 249 251 253 254 256 258 260 261 263 264 265 266 267 268 270 271 273 274 275 276 277 278 279
236 235 235 236 237 237 237 236 236 236 235 235 235 235 236 236 236 237 237 238 240 241 242 244 246 248 250 252 253 254 255 257 259 261 263 264 265 265 267 268 269 271 273 274 275 276 277 278 279
235 235 234 235 236 236 237 235 235 235 235 235 235 234 235 235 235 236 237 238 239 241 243 245 246 248 250 252 253 255 256 257 259 261 262 263 264 265 266 267 269 271 272 274 275 276 277 278 279
234 234 233 233 235 236 236 235 234 234 234 234 234 235 235 235 235 236 237 238 239 241 243 245 246 248 250 252 253 255 256 258 259 261 262 263 264 265 267 268 269 271 272 274 275 276 277 278 280
233 233 233 233 235 236 237 235 232 234 235 234 234 235 236 236 236 237 237 238 240 241 242 244 246 248 250 252 253 254 257 258 260 261 262 263 264 266 267 268 269 271 273 274 275 276 277 278 280
235 235 235 235 235 236 237 235 233 234 234 234 234 235 236 236 237 237 238 239 240 241 243 244 247 249 250 252 253 255 257 259 260 261 261 262 264 265 267 268 269 271 273 274 276 277 278 280 281
235 235 235 235 235 236 236 235 233 234 234 234 235 235 236 236 236 237 237 238 240 242 243 245 246 248 250 252 253 255 257 258 259 260 261 263 265 266 268 269 270 272 273 275 276 277 279 280 282
234 234 235 235 236 238 237 236 234 234 234 234 235 236 236 236 237 237 238 239 240 242 244 245 246 248 250 252 253 255 256 258 259 261 263 264 266 267 269 270 271 273 274 275 276 278 280 281 282
233 234 234 235 237 238 238 237 234 234 235 235 235 235 236 237 238 238 239 239 240 242 244 245 246 248 250 251 253 255 257 259 260 262 263 265 267 268 270 271 272 273 274 276 277 279 280 282 283
234 234 234 234 237 238 238 238 235 235 235 235 236 236 236 237 238 238 239 240 241 242 244 245 246 248 249 251 253 256 257 259 261 262 263 265 267 269 270 272 273 274 275 276 278 280 281 283 284
234 234 234 235 236 238 238 240 237 236 235 235 236 236 237 237 238 238 239 240 241 242 243 245 246 247 249 252 254 256 257 259 261 263 264 266 268 269 271 272 273 274 276 278 280 281 283 284 285
233 234 234 234 236 237 237 241 239 238 236 235 236 237 237 238 238 238 239 240 241 242 243 245 246 247 249 251 254 256 258 259 261 263 265 267 268 270 272 273 273 274 276 279 281 283 284 285 286
231 232 233 235 235 237 236 239 240 239 237 236 236 237 237 238 238 239 240 241 242 242 243 244 246 247 248 251 253 255 258 260 262 265 266 267 269 270 272 273 274 276 278 281 282 283 284 285 287
232 232 234 237 238 238 238 239 238 238 238 237 236 237 237 238 238 238 239 240 241 241 242 243 244 246 248 250 253 255 258 261 263 265 267 268 268 270 272 274 275 277 279 281 282 283 284 286 287
231 231 233 238 240 241 239 239 238 237 238 237 237 236 237 238 238 238 239 240 240 241 241 242 244 246 248 250 253 256 259 262 264 266 267 268 269 271 273 275 276 278 280 282 283 284 286 287 289
231 231 231 235 238 239 239 240 240 238 239 239 239 239 237 238 238 238 238 238 239 240 241 242 244 246 248 251 254 256 259 262 264 265 266 267 269 271 274 276 278 280 282 283 284 286 287 289 290
230 230 231 234 237 240 242 241 241 241 241 241 240 239 238 237 237 236 237 238 239 240 241 242 244 246 249 251 254 257 259 261 263 264 266 267 269 272 275 277 279 281 282 284 285 287 288 289 291
233 233 233 234 235 238 242 243 242 242 241 241 241 239 237 236 236 235 236 237 239 240 241 243 244 246 249 251 254 256 258 260 262 264 266 269 271 273 276 278 280 282 284 285 286 287 288 291 292
Height
5784 5787 5790 5792 5795 5798 5802 5807 5811 5814 5816 5818 5819 5821 5824 5827 5830 5834 5835 5836 5837 5839 5841 5842 5843 5845 5846 5847 5849 5850 5851 5852 5853 5854 5854 5855 5856 5856 5857 5858 5858 5858 5859 5859 5860 5860 5860 5860 5861
5777 5780 5783 5785 5788 5792 5798 5803 5806 5809 5810 5812 5814 5817 5819 5822 5825 5828 5830 5831 5833 5835 5837 5838 5840 5841 5842 5844 5845 5846 5848 5849 5850 5851 5851 5852 5853 5854 5854 5854 5855 5855 5856 5856 5856 5857 5857 5857 5857
5770 5773 5776 5779 5782 5788 5794 5798 5801 5802 5805 5807 5810 5812 5815 5818 5820 5823 5825 5827 5829 5831 5833 5834 5836 5837 5839 5840 5842 5843 5844 5845 5846 5847 5848 5849 5850 5850 5851 5851 5851 5852 5852 5853 5853 5853 5853 5854 5854
5763 5766 5769 5773 5777 5784 5788 5792 5794 5796 5799 5802 5804 5807 5810 5814 5816 5818 5820 5822 5824 5826 5828 5830 5832 5833 5835 5836 5838 5839 5840 5841 5842 5843 5844 5845 5846 5847 5847 5847 5848 5848 5849 5849 5849 5849 5849 5850 5850
5756 5759 5762 5766 5772 5778 5781 5785 5787 5790 5793 5796 5799 5802 5805 5808 5810 5813 5815 5817 5820 5822 5824 5826 5828 5829 5831 5832 5834 5835 5836 5837 5838 5839 5840 5841 5842 5842 5843 5844 5844 5844 5844 5845 5845 5845 5845 5845 5845
5748 5752 5756 5761 5767 5771 5775 5777 5780 5783 5786 5790 5793 5797 5800 5803 5805 5807 5810 5812 5815 5817 5819 5821 5823 5825 5826 5828 5830 5831 5832 5833 5834 5835 5836 5837 5837 5838 5839 5839 5840 5840 5840 5840 5841 5841 5841 5841 5841
5742 5745 5749 5755 5759 5764 5768 5770 5773 5776 5779 5783 5786 5790 5794 5797 5799 5802 5804 5807 5809 5812 5814 5816 5818 5820 5822 5823 5825 5826 5827 5828 5829 5830 5831 5832 5833 5833 5834 5835 5835 5835 5836 5836 5836 5836 5836 5836 5836
5733 5737 5741 5747 5752 5757 5760 5762 5766 5769 5772 5776 5779 5784 5788 5791 5793 5796 5799 5801 5804 5807 5809 5811 5813 5815 5817 5819 5820 5821 5823 5824 5825 5825 5826 5827 5828 5828 5829 5830 5830 5831 5831 5831 5831 5831 5831 5831 5831
5725 5730 5734 5741 5745 5749 5752 5755 5758 5761 5765 5769 5773 5777 5781 5784 5787 5790 5793 5796 5799 5801 5804 5806 5808 5810 5812 5813 5815 5816 5818 5819 5820 5820 5821 5822 5823 5823 5824 5824 5825 5826 5826 5826 5826 5826 5826 5826 5826
5717 5721 5729 5734 5737 5740 5744 5747 5751 5754 5758 5762 5766 5770 5774 5777 5780 5784 5787 5790 5793 5796 5798 5800 5802 5804 5806 5808 5810 5811 5812 5813 5814 5815 5816 5817 5817 5818 5819 5819 5820 5820 5821 5821 5821 5821 5821 5821 5820
5709 5716 5722 5725 5728 5731 5735 5739 5742 5746 5751 5755 5759 5763 5766 5770 5774 5777 5781 5784 5786 5789 5792 5794 5796 5798 5800 5802 5804 5805 5807 5808 5809 5810 5811 5811 5812 5813 5813 5814 5814 5815 5815 5815 5815 5815 5815 5815 5815
5702 5708 5712 5716 5719 5723 5726 5730 5734 5739 5744 5748 5751 5755 5759 5763 5767 5770 5773 5777 5780 5783 5785 5788 5790 5792 5794 5796 5798 5800 5801 5802 5803 5804 5805 5806 5806 5807 5808 5808 5808 5809 5809 5809 5809 5809 5809 5809 5809
5694 5699 5703 5707 5710 5714 5718 5722 5727 5732 5736 5740 5743 5748 5752 5756 5760 5763 5766 5770 5773 5776 5779 5781 5784 5786 5788 5790 5792 5793 5795 5796 5797 5798 5799 5800 5800 5801 5802 5802 5803 5803 5803 5803 5803 5803 5803 5803 5802
5686 5690 5694 5698 5702 5705 5710 5714 5719 5725 5728 5732 5736 5740 5744 5748 5752 5756 5760 5763 5766 5769 5772 5775 5777 5779 5781 5783 5785 5787 5788 5790 5791 5792 5793 5794 5794 5795 5796 5796 5796 5797 5797 5797 5797 5797 5796 5796 5796
5676 5680 5685 5689 5693 5697 5701 5706 5713 5718 5720 5725 5729 5733 5737 5741 5745 5749 5753 5756 5759 5762 5765 5768 5770 5772 5774 5776 5778 5780 5782 5783 5784 5785 5786 5787 5788 5788 5789 5790 5790 5790 5790 5790 5790 5790 5790 5789 5789
5666 5670 5676 5682 5685 5689 5693 5700 5706 5709 5712 5717 5722 5726 5730 5734 5738 5742 5745 5749 5752 5755 5758 5760 5763 5765 5768 5770 5771 5773 5775 5776 5777 5778 5779 5780 5781 5782 5782 5783 5783 5783 5783 5783 5783 5783 5783 5782 5781
5657 5662 5668 5674 5677 5680 5685 5692 5698 5700 5705 5709 5714 5718 5722 5727 5731 5735 5738 5742 5745 5748 5751 5753 5756 5758 5761 5763 5765 5766 5768 5769 5770 5771 5772 5773 5774 5775 5776 5776 5776 5776 5776 5776 5776 5776 5775 5775 5774
5651 5656 5661 5665 5669 5672 5677 5683 5689 5692 5697 5701 5706 5710 5715 5719 5724 5727 5731 5734 5738 5741 5744 5746 5749 5751 5753 5756 5757 5759 5761 5762 5763 5764 5765 5766 5767 5768 5768 5769 5769 5769 5769 5769 5768 5768 5767 5766 5766
5643 5648 5653 5657 5660 5664 5669 5674 5680 5684 5688 5693 5698 5703 5707 5712 5715 5719 5723 5727 5730 5734 5737 5739 5742 5744 5746 5748 5750 5752 5754 5755 5756 5757 5758 5759 5760 5760 5761 5761 5762 5762 5761 5761 5761 5760 5759 5758 5757
5634 5639 5644 5648 5652 5655 5660 5666 5671 5676 5681 5686 5690 5695 5699 5703 5707 5711 5715 5719 5723 5726 5729 5732 5734 5737 5739 5741 5743 5745 5746 5748 5749 5750 5751 5752 5753 5753 5753 5754 5754 5754 5753 5753 5753 5752 5751 5750 5748
5626 5631 5636 5640 5643 5647 5651 5657 5663 5668 5672 5677 5682 5687 5691 5695 5700 5704 5707 5711 5715 5719 5722 5724 5727 5729 5732 5734 5736 5738 5739 5741 5742 5743 5744 5744 5745 5745 5745 5746 5746 5745 5745 5745 5744 5743 5742 5741 5739
5618 5623 5627 5631 5635 5639 5644 5648 5656 5660 5665 5670 5674 5679 5683 5687 5692 5696 5700 5703 5707 5711 5714 5717 5719 5722 5724 5726 5728 5731 5732 5734 5735 5736 5736 5737 5737 5737 5737 5737 5737 5737 5736 5736 5735 5734 5732 5731 5729
5611 5615 5619 5623 5627 5631 5636 5640 5648 5652 5657 5662 5667 5670 5675 5679 5683 5687 5691 5695 5699 5702 5706 5709 5712 5714 5717 5719 5721 5723 5725 5726 5727 5728 5728 5729 5729 5729 5729 5729 5728 5728 5727 5726 5725 5724 5722 5720 5718
5603 5607 5611 5614 5618 5623 5629 5632 5639 5645 5650 5655 5659 5663 5667 5671 5676 5680 5683 5687 5690 5694 5697 5701 5704 5707 5710 5712 5714 5716 5717 5719 5719 5720 5721 5721 5721 5721 5721 5720 5720 5719 5718 5717 5716 5714 5712 5710 5708
5595 5600 5604 5606 5609 5615 5622 5624 5632 5638 5643 5647 5651 5655 5659 5663 5667 5671 5675 5679 5683 5686 5690 5693 5696 5699 5702 5704 5706 5708 5710 5711 5712 5712 5712 5712 5712 5712 5712 5711 5710 5710 5708 5707 5706 5704 5702 5700 5698
5588 5593 5597 5600 5603 5609 5613 5617 5625 5630 5634 5639 5643 5647 5651 5655 5659 5663 5667 5671 5674 5678 5682 5686 5689 5692 5694 5697 5699 5700 5702 5703 5703 5704 5704 5704 5704 5703 5703 5702 5701 5700 5699 5698 5696 5695 5693 5690 5688
5580 5584 5590 5593 5596 5601 5605 5611 5617 5621 5626 5631 5635 5639 5643 5647 5651 5655 5659 5663 5666 5670 5674 5678 5681 5684 5686 5689 5691 5692 5693 5694 5695 5695 5695 5695 5695 5694 5694 5693 5692 5691 5690 5688 5687 5685 5683 5680 5678
5575 5579 5582 5585 5588 5593 5598 5604 5609 5614 5618 5623 5627 5631 5634 5639 5643 5647 5650 5654 5658 5662 5666 5669 5673 5676 5678 5680 5682 5684 5685 5686 5686 5686 5686 5686 5686 5685 5685 5684 5683 5682 5680 5679 5677 5675 5673 5670 5667
5569 5573 5575 5579 5583 5587 5591 5599 5602 5607 5611 5615 5619 5622 5626 5631 5634 5638 5642 5646 5650 5653 5657 5661 5664 5667 5670 5672 5673 5675 5676 5677 5677 5678 5678 5678 5677 5677 5676 5675 5674 5673 5671 5669 5668 5665 5662 5659 5656
5562 5566 5570 5574 5577 5581 5585 5593 5595 5599 5603 5606 5611 5614 5618 5622 5626 5630 5634 5638 5641 5645 5649 5652 5656 5658 5661 5663 5665 5666 5667 5668 5669 5669 5669 5669 5669 5668 5667 5666 5665 5663 5662 5660 5658 5655 5652 5649 5646